星链-2128 (STARLINK-2128 )

导读 | 星芒AI

STARLINK-2128 是 SpaceX Starlink 项目中的一颗低轨通信卫星,旨在为全球用户提供高速互联网服务。该卫星属于第二代 Starlink 卫星,搭载先进推进系统和激光通信技术,提升网络稳定性和数据传输效率。它运行在约 550 公里的轨道高度,与其他 Starlink 卫星协同工作,构建覆盖全球的卫星互联网网络。STARLINK-2128 的发射和运行有助于减少数字鸿沟,特别是在偏远和网络基础设施薄弱的地区。

基本信息
目录编号:
47404
目录名称:
STARLINK-2128
国际标识:
2021-005BH
轨道中心:
EARTH
卫星名称:
星链-2128
卫星全名:
星链-2128 (STARLINK-2128 )
卫星状态:
在轨 (已飞行1791 天)
发射日期:
2021-01-20 UTC
国别 :
美国 (US)
星等 :
--
轨道信息
数据来源 国际轨道数据 AOE轨道数据
星历时间 2025-12-16T16:32:55+0800
15小时前
查看轨道信息
2025-12-15T08:00:00+0800
1天前
查看轨道信息
半长轴 6925.339km 6925.34km
偏心率 0.0001702 0.0001349
轨道倾角 53.056° 53.055°
近地点辐角 71.362° 82.905°
升交点赤经 45.719° 51.806°
平近点角 288.755° 118.517°
近地点 546.025km 546.27km
远地点 548.383km 548.14km
周期 95.592分钟 95.592分钟
每日圈数 15.064034 15.064031
详细信息
固有亮度:
5
最大亮度:
2.5
卫星平台:
Starlink V1.0
覆盖范围:
全球
运营商:
太空探索技术公司
运营商所在国:
美国
制造商(研发单位):
太空探索技术公司
制造商所在国:
美国
使用方式:
暂无
卫星简介
星链(Starlink)计划是由太空探索技术公司(SpaceX)提出的一个巨型低轨卫星互联网星座项目,计划在2019年至2024年间在太空搭建由约1.2万颗卫星组成的“星链”网络,其中1584颗将部署在地球上空550千米处的近地轨道,并从2020年开始工作。该卫星仍在工作。
2D轨道图
3D轨道图
轨道高度分析图
轨道倾角分析图
轨道综合分析图
查看轨道综合分析图